Terminal Aerodrome Forecast
Issued by NWS

Home | Current Version | Previous Version | Text Only | Print | Product List | Glossary On
Versions: 1 2 3 4 5 6 7 8 9 10 11 12 13 14 15 16 17 18 19 20 21 22 23 24 25 26 27 28 29 30 31 32 33 34
000
FTUS41 KCAR 021700
TAFFVE
TAF
KFVE 021739Z 0218/0318 17009KT P6SM SCT015
     FM022000 18011KT P6SM VCTS BKN015CB
     FM030100 19006KT 3SM -SHRA VCTS OVC008CB
     FM030300 20006KT 1/2SM -SHRA FG OVC003
     FM031100 25008KT P6SM OVC003
     FM031400 30008KT P6SM BKN008
     FM031500 31008KT P6SM BKN045=

USA.gov is the U.S. government's official web portal to all federal, state and local government web resources and services.